• In Russia
  • List of Countries
  • For 7 days
  • Water Temperature
  • Satellite Maps
  • Weather Map
  • Weather Widgets
  • user-avatar
    Login

    Hourly Weather Nagykata

    Today, 24 August, Thursday

    Time Temperature Precipitation Wind Pressure Humidity
    00:00 +16°C° 0 mm 1 mps 754 mmHg 51%
    01:00 +16°C° 0 mm 1 mps 754 mmHg 53%
    02:00 +15°C° 0 mm 1 mps 754 mmHg 54%
    03:00 +15°C° 0 mm 1 mps 754 mmHg 55%
    04:00 +14°C° 0 mm 1 mps 754 mmHg 56%
    05:00 +16°C° 0 mm 1 mps 754 mmHg 52%
    06:00 +18°C° 0 mm 1 mps 754 mmHg 49%
    07:00 +19°C° 0 mm 1 mps 755 mmHg 45%
    08:00 +21°C° 0 mm 1 mps 755 mmHg 40%
    09:00 +24°C° 0 mm 2 mps 755 mmHg 36%
    10:00 +26°C° 0 mm 2 mps 755 mmHg 31%
    11:00 +27°C° 0 mm 3 mps 754 mmHg 29%
    12:00 +28°C° 0 mm 3 mps 754 mmHg 27%
    13:00 +29°C° 0 mm 3 mps 754 mmHg 26%
    14:00 +30°C° 0 mm 3 mps 754 mmHg 25%
    15:00 +30°C° 0 mm 3 mps 753 mmHg 24%
    16:00 +30°C° 0 mm 3 mps 753 mmHg 23%
    17:00 +28°C° 0 mm 2 mps 753 mmHg 27%
    18:00 +26°C° 0 mm 1 mps 753 mmHg 31%
    19:00 +22°C° 0 mm 0 mps 753 mmHg 35%
    20:00 +22°C° 0 mm 0 mps 753 mmHg 37%
    21:00 +23°C° 0 mm 1 mps 754 mmHg 38%
    22:00 +23°C° 0 mm 1 mps 754 mmHg 39%
    23:00 +22°C° 0 mm 1 mps 754 mmHg 41%

    Tomorrow, 25 August, Friday

    Time Temperature Precipitation Wind Pressure Humidity
    00:00 +21°C° 0 mm 1 mps 754 mmHg 43%
    01:00 +20°C° 0 mm 2 mps 754 mmHg 44%
    02:00 +20°C° 0 mm 2 mps 754 mmHg 46%
    03:00 +20°C° 0 mm 1 mps 754 mmHg 48%
    04:00 +20°C° 0 mm 1 mps 754 mmHg 50%
    05:00 +21°C° 0 mm 1 mps 754 mmHg 48%
    06:00 +22°C° 0 mm 1 mps 754 mmHg 46%
    07:00 +23°C° 0 mm 2 mps 755 mmHg 45%
    08:00 +26°C° 0 mm 2 mps 755 mmHg 40%
    09:00 +28°C° 0 mm 2 mps 755 mmHg 35%
    10:00 +31°C° 0 mm 2 mps 755 mmHg 30%
    11:00 +33°C° 0 mm 3 mps 754 mmHg 28%
    12:00 +34°C° 0 mm 3 mps 754 mmHg 26%
    13:00 +36°C° 0 mm 3 mps 753 mmHg 23%
    14:00 +36°C° 0 mm 3 mps 753 mmHg 23%
    15:00 +37°C° 0 mm 3 mps 753 mmHg 22%
    16:00 +37°C° 0 mm 3 mps 752 mmHg 21%
    17:00 +35°C° 0 mm 2 mps 752 mmHg 25%
    18:00 +31°C° 0 mm 2 mps 752 mmHg 28%
    19:00 +29°C° 0 mm 1 mps 752 mmHg 32%
    20:00 +28°C° 0 mm 2 mps 752 mmHg 34%
    21:00 +27°C° 0 mm 2 mps 752 mmHg 36%
    22:00 +26°C° 0 mm 3 mps 753 mmHg 38%
    23:00 +26°C° 0 mm 3 mps 753 mmHg 39%

    Day after tomorrow, 26 August, Saturday

    Time Temperature Precipitation Wind Pressure Humidity
    00:00 +25°C° 0 mm 3 mps 753 mmHg 40%
    01:00 +25°C° 0 mm 3 mps 753 mmHg 41%
    02:00 +24°C° 0 mm 2 mps 753 mmHg 43%
    03:00 +23°C° 0 mm 2 mps 753 mmHg 45%
    04:00 +23°C° 0 mm 2 mps 752 mmHg 46%
    05:00 +24°C° 0 mm 2 mps 753 mmHg 45%
    06:00 +25°C° 0 mm 1 mps 753 mmHg 43%
    07:00 +26°C° 0 mm 1 mps 753 mmHg 41%
    08:00 +28°C° 0 mm 1 mps 753 mmHg 37%
    09:00 +31°C° 0 mm 1 mps 753 mmHg 33%
    10:00 +33°C° 0 mm 1 mps 753 mmHg 29%
    11:00 +34°C° 0 mm 1 mps 753 mmHg 27%
    12:00 +36°C° 0 mm 2 mps 753 mmHg 25%
    13:00 +38°C° 0 mm 2 mps 752 mmHg 23%
    14:00 +38°C° 0 mm 2 mps 752 mmHg 22%
    15:00 +38°C° 0 mm 2 mps 752 mmHg 22%
    16:00 +38°C° 0 mm 2 mps 751 mmHg 21%
    17:00 +35°C° 0 mm 1 mps 751 mmHg 24%
    18:00 +33°C° 0 mm 1 mps 751 mmHg 28%
    19:00 +31°C° 0 mm 1 mps 751 mmHg 31%
    20:00 +30°C° 0 mm 2 mps 751 mmHg 32%
    21:00 +29°C° 0 mm 2 mps 752 mmHg 34%
    22:00 +28°C° 0 mm 2 mps 752 mmHg 35%
    23:00 +27°C° 0 mm 2 mps 752 mmHg 36%

    27 August, Sunday

    Time Temperature Precipitation Wind Pressure Humidity
    00:00 +26°C° 0 mm 2 mps 752 mmHg 37%
    01:00 +25°C° 0 mm 1 mps 752 mmHg 38%
    02:00 +24°C° 0 mm 1 mps 752 mmHg 39%
    03:00 +24°C° 0 mm 1 mps 751 mmHg 40%
    04:00 +23°C° 0 mm 1 mps 751 mmHg 42%
    05:00 +24°C° 0 mm 1 mps 752 mmHg 40%
    06:00 +25°C° 0 mm 1 mps 752 mmHg 38%
    07:00 +26°C° 0 mm 1 mps 752 mmHg 37%
    08:00 +29°C° 0 mm 2 mps 752 mmHg 32%
    09:00 +31°C° 0 mm 2 mps 752 mmHg 27%
    10:00 +35°C° 0 mm 2 mps 752 mmHg 22%
    11:00 +36°C° 0 mm 2 mps 752 mmHg 20%
    12:00 +37°C° 0 mm 2 mps 752 mmHg 18%
    13:00 +39°C° 0 mm 2 mps 751 mmHg 16%
    14:00 +39°C° 0 mm 2 mps 751 mmHg 16%
    15:00 +39°C° 0 mm 2 mps 751 mmHg 16%
    16:00 +39°C° 0 mm 1 mps 750 mmHg 16%
    17:00 +36°C° 0 mm 1 mps 750 mmHg 19%
    18:00 +33°C° 0 mm 1 mps 750 mmHg 22%
    19:00 +31°C° 0 mm 2 mps 750 mmHg 26%
    20:00 +30°C° 0.2 mm 1 mps 750 mmHg 27%
    21:00 +29°C° 0.2 mm 1 mps 750 mmHg 28%
    22:00 +28°C° 0.2 mm 1 mps 750 mmHg 30%
    23:00 +27°C° 0.2 mm 1 mps 750 mmHg 31%

    28 August, Monday

    Time Temperature Precipitation Wind Pressure Humidity
    00:00 +27°C° 0.2 mm 1 mps 750 mmHg 32%
    01:00 +26°C° 0.2 mm 1 mps 750 mmHg 33%
    02:00 +25°C° 0 mm 2 mps 750 mmHg 36%
    03:00 +25°C° 0 mm 2 mps 750 mmHg 38%
    04:00 +24°C° 0 mm 2 mps 750 mmHg 40%
    05:00 +25°C° 0.1 mm 2 mps 750 mmHg 40%
    06:00 +26°C° 0.1 mm 1 mps 750 mmHg 40%
    07:00 +27°C° 0.1 mm 1 mps 751 mmHg 41%
    08:00 +29°C° 0.1 mm 2 mps 751 mmHg 39%
    09:00 +31°C° 0.1 mm 2 mps 751 mmHg 36%
    10:00 +32°C° 0.1 mm 2 mps 751 mmHg 34%
    11:00 +34°C° 0 mm 2 mps 751 mmHg 33%
    12:00 +35°C° 0 mm 3 mps 750 mmHg 32%
    13:00 +35°C° 0 mm 3 mps 750 mmHg 32%
    14:00 +35°C° 0 mm 4 mps 750 mmHg 31%
    15:00 +36°C° 0 mm 4 mps 750 mmHg 30%
    16:00 +36°C° 0 mm 4 mps 750 mmHg 29%
    17:00 +34°C° 0 mm 4 mps 750 mmHg 34%
    18:00 +31°C° 0 mm 3 mps 750 mmHg 39%
    19:00 +29°C° 0 mm 3 mps 750 mmHg 44%
    20:00 +28°C° 0 mm 3 mps 751 mmHg 47%
    21:00 +27°C° 0 mm 3 mps 751 mmHg 50%
    22:00 +26°C° 0 mm 3 mps 751 mmHg 53%
    23:00 +26°C° 0 mm 3 mps 751 mmHg 56%

    29 August, Tuesday

    Time Temperature Precipitation Wind Pressure Humidity
    00:00 +25°C° 0 mm 2 mps 751 mmHg 59%
    01:00 +24°C° 0 mm 2 mps 751 mmHg 61%
    02:00 +23°C° 0 mm 2 mps 752 mmHg 64%
    03:00 +23°C° 0 mm 2 mps 752 mmHg 67%
    04:00 +21°C° 0 mm 2 mps 752 mmHg 70%
    05:00 +23°C° 0 mm 2 mps 752 mmHg 66%
    06:00 +24°C° 0 mm 2 mps 752 mmHg 63%
    07:00 +25°C° 0 mm 2 mps 753 mmHg 59%
    08:00 +26°C° 0 mm 2 mps 753 mmHg 53%
    09:00 +28°C° 0 mm 2 mps 753 mmHg 47%
    10:00 +29°C° 0 mm 2 mps 753 mmHg 41%
    11:00 +30°C° 0 mm 2 mps 752 mmHg 38%
    12:00 +31°C° 0 mm 2 mps 752 mmHg 34%
    13:00 +32°C° 0 mm 2 mps 752 mmHg 31%
    14:00 +32°C° 0 mm 2 mps 751 mmHg 30%
    15:00 +34°C° 0 mm 2 mps 751 mmHg 30%
    16:00 +34°C° 0 mm 2 mps 751 mmHg 29%
    17:00 +31°C° 0 mm 2 mps 751 mmHg 33%
    18:00 +29°C° 0 mm 2 mps 751 mmHg 37%
    19:00 +28°C° 0 mm 1 mps 751 mmHg 41%
    20:00 +27°C° 0 mm 2 mps 751 mmHg 43%
    21:00 +26°C° 0 mm 2 mps 752 mmHg 45%
    22:00 +25°C° 0 mm 2 mps 752 mmHg 47%
    23:00 +25°C° 0 mm 2 mps 752 mmHg 49%
    Show more